Location: Fort Wayne
(41.1310°N, 85.1290°W)
Time: 15:48:04
(UTC-04:00)

BREEZE-M DEB (TANK) - Visible Passes

Search period start: 31 August 2015 00:00
Search period end: 10 September 2015 00:00
Orbit: 265 x 13519 km, 49.6° (Epoch: 29 August)

Date Brightness Start Highest point End Pass type
(mag) Time Alt. Az. Time Alt. Az. Time Alt. Az.
31 Aug 7.1 23:08:06 10° NW 00:28:06 39° WSW 00:41:38 23° SW visible
01 Sep 7.0 19:17:18 10° WNW 21:22:29 86° SW 21:49:31 18° SE visible
02 Sep 7.6 01:06:18 10° NW 01:48:19 17° W 02:00:17 10° WSW visible
02 Sep 6.8 21:05:24 10° WNW 22:53:09 62° WSW 23:10:57 26° S visible
03 Sep 7.2 22:57:15 10° NW 00:16:49 36° W 00:32:23 19° SW visible
04 Sep 7.0 19:07:20 10° WNW 21:11:58 84° SW 21:40:14 14° SE visible
05 Sep 7.7 00:56:50 10° NW 01:36:43 15° W 01:47:41 10° WSW visible
05 Sep 6.9 20:54:43 10° WNW 22:41:58 60° WSW 23:01:38 21° S visible
06 Sep 7.3 22:46:01 10° NW 00:05:12 34° W 00:23:01 14° SSW visible
07 Sep 7.1 18:56:58 10° WNW 21:01:01 82° SW 21:30:51 10° SE visible
08 Sep 7.8 00:47:26 10° NW 01:24:46 14° W 01:34:15 10° W visible
08 Sep 7.1 20:43:35 10° NW 22:30:24 57° WSW 22:52:12 15° S visible
